Hourly Weather Roundup
Issued by NWS Central Illinois

Home | Current Version | Previous Version | Text Only | Print | Product List | Glossary On
Versions: 1 2 3 4 5 6 7 8 9 10 11 12 13 14 15 16 17 18 19 20 21 22 23 24 25 26 27 28 29 30 31 32 33 34 35 36 37 38 39 40 41 42 43 44 45 46 47 48 49 50
000
NZUS43 KILX 030010
HWRILX

AREA WEATHER ROUNDUP
NATIONAL WEATHER SERVICE, LINCOLN IL
700 PM CDT SAT MAY 02 2015


CITY           SKY/WX    TMP DP  RH WIND       PRES   REMARKS
BLOOMINGTON    MOCLDY    70  41  34 SW8       30.00S
6HR MIN TEMP:  71; 6HR MAX TEMP:  76;

CHAMPAIGN      MOCLDY    71  38  29 S9        30.01R
6HR MIN TEMP:  71; 6HR MAX TEMP:  78;

DANVILLE       MOCLDY    70  41  35 SW8       29.99R
6HR MIN TEMP:  70; 6HR MAX TEMP:  75;

DECATUR        CLOUDY    70  43  37 S9        30.00S
6HR MIN TEMP:  70; 6HR MAX TEMP:  76;

EFFINGHAM      MOCLDY    70  35  26 S3        30.04S
FLORA          PTCLDY    68  45  43 SW3       30.04S
6HR MIN TEMP:  68; 6HR MAX TEMP:  74;

GALESBURG      CLOUDY    69  40  35 SW7       29.96F
JACKSONVILLE   CLOUDY    74  42  32 SW3       29.98S
6HR MIN TEMP:  74; 6HR MAX TEMP:  80;

LACON          MOCLDY    71  39  31 SW5       29.96S
6HR MIN TEMP:  71; 6HR MAX TEMP:  76;

LAWRENCEVILLE  PTCLDY    69  44  40 SW7       30.05R
6HR MIN TEMP:  69; 6HR MAX TEMP:  75;

LITCHFIELD     CLOUDY    69  44  40 S5        30.00S
$$


CITY           SKY/WX    TMP DP  RH WIND       PRES   REMARKS
LINCOLN        CLOUDY    73  40  31 S3        29.97R
6HR MIN TEMP:  73; 6HR MAX TEMP:  78;

MACOMB         CLOUDY    70  40  33 W8        30.00S
MATTOON        MOCLDY    69  41  36 S3        30.02S
6HR MIN TEMP:  69; 6HR MAX TEMP:  73;

MT CARMEL AP   PTCLDY    72  37  28 S6        30.04S
OLNEY-NOBLE AP PTCLDY    70  45  40 S3        30.03F
PARIS          PTCLDY    69  43  38 S6        30.03S
6HR MIN TEMP:  69; 6HR MAX TEMP:  75;

PEORIA         CLOUDY    71  44  37 SW5       29.97F
6HR MIN TEMP:  71; 6HR MAX TEMP:  78;

PONTIAC        MOCLDY    75  40  28 SW9       29.98S
RANTOUL        MOCLDY    74  39  28 SW6       30.00R
6HR MIN TEMP:  74; 6HR MAX TEMP:  78;

ROBINSON       PTCLDY    70  44  39 SW8       30.05R
6HR MIN TEMP:  70; 6HR MAX TEMP:  75;

SPRINGFIELD    CLOUDY    74  40  29 SW3       29.99S
6HR MIN TEMP:  72; 6HR MAX TEMP:  78;

TAYLORVILLE    CLOUDY    70  41  35 S7        30.00S
$$

...REGIONAL REPORTS...


CITY           SKY/WX    TMP DP  RH WIND       PRES   REMARKS
CHICAGO O`HARE PTCLDY    74  35  24 SW9       29.94S
KANKAKEE       PTCLDY    70  43  37 SW8       29.99R
MOLINE         CLOUDY    71  42  35 W10       29.95R
MOUNT VERNON   CLOUDY    70  45  40 S5        30.04S
PITTSFIELD     LGT RAIN  70  45  40 NW10      30.01R
QUINCY         LGT RAIN  60  54  80 E6        29.98F
ROCKFORD       MOCLDY    75  38  26 S12       29.95F
$$


CITY           SKY/WX    TMP DP  RH WIND       PRES   REMARKS
BURLINGTON     LGT RAIN  66  53  63 S14       29.96F
CEDAR RAPIDS   PTSUNNY   68  52  56 SW16      29.93F
DES MOINES     MOSUNNY   65  55  70 S15       29.89F
KIRKSVILLE     CLOUDY    62  58  86 SE8       29.96F
OTTUMWA        CLOUDY    60  56  86 S8        29.93R
ST LOUIS       MOCLDY    74  45  35 E7        29.98F
$$


CITY           SKY/WX    TMP DP  RH WIND       PRES   REMARKS
TERRE HAUTE    MOCLDY    69  43  38 SW7       30.03S
EVANSVILLE     PTCLDY    70  46  42 CALM      30.05S
INDIANAPOLIS   MOCLDY    69  42  37 SW10      30.02S
LAFAYETTE      PTCLDY    70  39  32 SW6       30.00S
MADISON        MOCLDY    73  41  31 SW8       29.90F
MILWAUKEE      MOCLDY    67  38  34 S10       29.92S
$$





USA.gov is the U.S. government's official web portal to all federal, state and local government web resources and services.